Date String (YYYY-MM-DD hh:mm:ss) UTC,Instrument flags,absolute air pressure of the measurement (hPa),sample flow rate (lpm),inlet stack bypass flow (lpm),air temperature of the measurement (°C),ambient temperature measured by the external sensor (°C),aerosol sample conditioner tube jacket temperature (°C),OPC LED temperature (°C),internal box temperature (°C),relative humidity of the measurement (%),span deviation,mass concentration of particles derived from Lorenz-Mie calculation of OPC scattering (μg/m³),mass concentration of particles derived from Lorenz-Mie calculation of OPC scattering (μg/m³),mass concentration of particles derived from Lorenz-Mie calculation of OPC scattering (μg/m³)
DateTimeUTC,F1_M11,P_M11,Q1_M11,Q2_M11,T1_M11,T2_M11,T3_M11,T4_M11,T5_M11,U1_M11,ZSPAN_M11,X0_M11,X2_M11,X1_M11
2024-05-22 03:00:00,SystemResetWarning,0828.6,5.00,000.00,027.2,026.3,000.0,035.5,028.9,010.7,0000.0,0002.64,0001.36,0001.04
2024-05-22 03:01:00,SystemResetWarning,0828.6,5.00,000.00,027.1,026.3,000.0,035.5,028.9,012.0,0000.0,0002.59,0001.35,0001.02
2024-05-22 03:02:00,SystemResetWarning,0828.5,4.99,000.00,027.1,026.3,000.0,035.5,028.9,012.3,0000.0,0002.50,0001.30,0001.01
2024-05-22 03:03:00,SystemResetWarning,0828.5,5.00,000.00,027.1,026.3,000.0,035.5,028.9,012.5,0000.0,0002.38,0001.24,0000.98
2024-05-22 03:04:00,SystemResetWarning,0828.5,5.01,000.00,027.1,026.3,000.0,035.5,028.9,011.8,0000.0,0002.38,0001.21,0000.97
2024-05-22 03:05:00,SystemResetWarning,0828.4,5.01,000.00,027.1,026.3,000.0,035.5,028.9,011.3,0000.0,0002.32,0001.18,0000.97
2024-05-22 03:06:00,SystemResetWarning,0828.5,5.00,000.00,027.1,026.3,000.0,035.5,028.9,011.2,0000.0,0001.83,0001.16,0000.97
2024-05-22 03:07:00,SystemResetWarning,0828.6,4.99,000.00,027.1,026.3,000.0,035.5,028.9,011.1,0000.0,0001.66,0001.13,0000.98
2024-05-22 03:08:00,SystemResetWarning,0828.6,5.00,000.00,027.1,026.3,000.0,035.5,028.9,011.2,0000.0,0001.54,0001.12,0000.99
2024-05-22 03:09:00,SystemResetWarning,0828.4,5.00,000.00,027.1,026.3,000.0,035.5,028.9,011.5,0000.0,0001.53,0001.13,0000.99
2024-05-22 03:10:00,SystemResetWarning,0828.4,5.00,000.00,027.1,026.3,000.0,035.5,028.9,011.6,0000.0,0001.43,0001.10,0000.99
2024-05-22 03:11:00,SystemResetWarning,0828.4,5.01,000.00,027.1,026.3,000.0,035.5,028.9,011.7,0000.0,0001.40,0001.09,0000.99
2024-05-22 03:12:00,SystemResetWarning,0828.6,5.00,000.00,027.1,026.2,000.0,035.5,028.8,011.7,0000.0,0001.39,0001.08,0000.99
2024-05-22 03:13:00,SystemResetWarning,0828.6,5.01,000.00,027.1,026.2,000.0,035.5,028.8,011.5,0000.0,0001.40,0001.09,0000.99
2024-05-22 03:14:00,SystemResetWarning,0828.5,5.00,000.00,027.1,026.2,000.0,035.5,028.8,011.2,0000.0,0001.54,0001.14,0001.01
2024-05-22 03:15:00,SystemResetWarning,0828.5,4.99,000.00,027.0,026.2,000.0,035.5,028.8,011.5,0000.0,0001.49,0001.16,0001.02
2024-05-22 03:16:00,SystemResetWarning,0828.5,5.00,000.00,027.0,026.2,000.0,035.5,028.8,011.6,0000.0,0001.53,0001.18,0001.02
2024-05-22 03:17:00,SystemResetWarning,0828.5,4.99,000.00,027.0,026.1,000.0,035.5,028.8,011.5,0000.0,0001.55,0001.17,0001.01
2024-05-22 03:18:00,SystemResetWarning,0828.5,5.01,000.00,027.0,026.1,000.0,035.5,028.7,011.6,0000.0,0001.72,0001.21,0001.01
2024-05-22 03:19:00,SystemResetWarning,0828.5,5.00,000.00,027.0,026.1,000.0,035.5,028.7,011.6,0000.0,0002.05,0001.25,0001.01
2024-05-22 03:20:00,SystemResetWarning,0828.5,4.99,000.00,026.9,026.1,000.0,035.5,028.7,011.3,0000.0,0002.07,0001.27,0001.02
2024-05-22 03:21:00,SystemResetWarning,0828.5,4.99,000.00,026.9,026.0,000.0,035.5,028.6,011.2,0000.0,0002.10,0001.29,0001.03
2024-05-22 03:22:00,SystemResetWarning,0828.6,5.00,000.00,026.9,026.0,000.0,035.5,028.6,011.5,0000.0,0002.17,0001.31,0001.04
2024-05-22 03:23:00,SystemResetWarning,0828.6,5.01,000.00,026.9,025.9,000.0,035.4,028.5,011.5,0000.0,0002.15,0001.32,0001.05
2024-05-22 03:24:00,SystemResetWarning,0828.6,5.00,000.00,026.8,025.9,000.0,035.4,028.5,011.4,0000.0,0002.14,0001.32,0001.06
2024-05-22 03:25:00,SystemResetWarning,0828.6,5.00,000.00,026.8,025.9,000.0,035.4,028.5,011.3,0000.0,0002.07,0001.30,0001.07
2024-05-22 03:26:00,SystemResetWarning,0828.7,5.00,000.00,026.8,025.9,000.0,035.4,028.5,011.5,0000.0,0002.11,0001.32,0001.08
2024-05-22 03:27:00,SystemResetWarning,0828.6,4.99,000.00,026.8,025.9,000.0,035.4,028.5,011.6,0000.0,0002.09,0001.31,0001.08
2024-05-22 03:28:00,SystemResetWarning,0828.6,5.01,000.00,026.8,025.9,000.0,035.3,028.5,011.7,0000.0,0002.16,0001.35,0001.09
2024-05-22 03:29:00,SystemResetWarning,0828.6,5.01,000.00,026.8,025.9,000.0,035.3,028.6,011.5,0000.0,0002.06,0001.36,0001.11
2024-05-22 03:30:00,SystemResetWarning,0828.6,5.01,000.00,026.8,026.0,000.0,035.3,028.6,011.4,0000.0,0001.88,0001.35,0001.11
2024-05-22 03:31:00,SystemResetWarning,0828.7,4.99,000.00,026.8,026.0,000.0,035.3,028.6,011.4,0000.0,0001.79,0001.34,0001.11
2024-05-22 03:32:00,SystemResetWarning,0828.7,5.00,000.00,026.8,026.0,000.0,035.3,028.6,011.5,0000.0,0001.88,0001.32,0001.12
2024-05-22 03:33:00,SystemResetWarning,0828.7,5.00,000.00,026.8,026.0,000.0,035.3,028.6,011.5,0000.0,0001.82,0001.30,0001.12
2024-05-22 03:34:00,SystemResetWarning,0828.7,5.00,000.00,026.8,026.0,000.0,035.3,028.6,011.1,0000.0,0001.92,0001.35,0001.13
2024-05-22 03:35:00,SystemResetWarning,0828.6,5.00,000.00,026.8,026.0,000.0,035.3,028.6,010.1,0000.0,0001.97,0001.37,0001.15
2024-05-22 03:36:00,SystemResetWarning,0828.6,5.00,000.00,026.8,026.0,000.0,035.3,028.6,010.1,0000.0,0002.07,0001.40,0001.16
2024-05-22 03:37:00,SystemResetWarning,0828.6,5.00,000.00,026.8,026.1,000.0,035.3,028.6,010.2,0000.0,0002.02,0001.39,0001.17
2024-05-22 03:38:00,SystemResetWarning,0828.7,5.00,000.00,026.8,026.1,000.0,035.2,028.6,010.5,0000.0,0002.04,0001.41,0001.19
2024-05-22 03:39:00,SystemResetWarning,0828.7,5.00,000.00,026.8,026.1,000.0,035.2,028.6,010.5,0000.0,0002.05,0001.43,0001.22
2024-05-22 03:40:00,SystemResetWarning,0828.7,5.00,000.00,026.8,026.1,000.0,035.2,028.6,010.8,0000.0,0002.04,0001.43,0001.24
2024-05-22 03:41:00,SystemResetWarning,0828.8,5.00,000.00,026.8,026.1,000.0,035.2,028.6,011.1,0000.0,0002.10,0001.47,0001.26
2024-05-22 03:42:00,SystemResetWarning,0828.7,5.00,000.00,026.8,026.1,000.0,035.2,028.6,011.1,0000.0,0002.08,0001.46,0001.26
2024-05-22 03:43:00,SystemResetWarning,0828.7,5.00,000.00,026.8,026.1,000.0,035.2,028.7,010.9,0000.0,0001.98,0001.48,0001.26
2024-05-22 03:44:00,SystemResetWarning,0828.7,4.99,000.00,026.8,026.1,000.0,035.2,028.7,010.8,0000.0,0002.09,0001.53,0001.28
2024-05-22 03:45:00,SystemResetWarning,0828.8,5.01,000.00,026.9,026.1,000.0,035.2,028.7,010.8,0000.0,0002.21,0001.56,0001.28
2024-05-22 03:46:00,SystemResetWarning,0828.8,5.01,000.00,026.9,026.1,000.0,035.2,028.7,010.7,0000.0,0002.35,0001.57,0001.28
2024-05-22 03:47:00,SystemResetWarning,0828.8,4.99,000.00,026.9,026.1,000.0,035.2,028.7,010.6,0000.0,0002.32,0001.57,0001.28
2024-05-22 03:48:00,SystemResetWarning,0828.8,4.99,000.00,026.9,026.1,000.0,035.2,028.6,010.9,0000.0,0002.34,0001.57,0001.27
2024-05-22 03:49:00,SystemResetWarning,0828.8,5.01,000.00,026.8,026.1,000.0,035.2,028.6,010.7,0000.0,0002.69,0001.61,0001.26
2024-05-22 03:50:00,SystemResetWarning,0829.0,5.00,000.00,026.8,026.1,000.0,035.2,028.6,010.6,0000.0,0002.65,0001.59,0001.25
2024-05-22 03:51:00,SystemResetWarning,0829.0,4.99,000.00,026.8,026.1,000.0,035.2,028.6,010.6,0000.0,0002.74,0001.60,0001.24
2024-05-22 03:52:00,SystemResetWarning,0828.9,4.99,000.00,026.8,026.0,000.0,035.2,028.6,010.9,0000.0,0002.68,0001.57,0001.23
2024-05-22 03:53:00,SystemResetWarning,0829.0,5.02,000.00,026.8,026.0,000.0,035.2,028.6,010.9,0000.0,0002.67,0001.58,0001.24
2024-05-22 03:54:00,SystemResetWarning,0829.0,5.00,000.00,026.8,026.0,000.0,035.2,028.6,011.0,0000.0,0002.71,0001.59,0001.24
2024-05-22 03:55:00,SystemResetWarning,0829.0,5.00,000.00,026.8,026.0,000.0,035.2,028.6,011.1,0000.0,0002.62,0001.56,0001.23
2024-05-22 03:56:00,SystemResetWarning,0828.9,4.99,000.00,026.8,025.9,000.0,035.2,028.5,011.5,0000.0,0002.49,0001.53,0001.22
2024-05-22 03:57:00,SystemResetWarning,0829.0,4.99,000.00,026.7,025.9,000.0,035.2,028.5,011.1,0000.0,0002.33,0001.52,0001.22
2024-05-22 03:58:00,SystemResetWarning,0829.0,5.01,000.00,026.7,025.9,000.0,035.2,028.5,011.1,0000.0,0002.44,0001.55,0001.22
2024-05-22 03:59:00,SystemResetWarning,0829.0,5.00,000.00,026.7,025.9,000.0,035.2,028.5,011.3,0000.0,0002.51,0001.59,0001.23
